Florala, AL

5:32 AM CST on February 24, 2017 (GMT -0600)
Florala

Weather History for K0J4 - March, 2013

Change the Weather History Date:

Friday, March 29, 2013

  Actual Average (KCEW) Record (KCEW)
Temperature  
Mean Temperature 57 °F -  
Max Temperature 75 °F 74 °F 90 °F (2007)
Min Temperature 39 °F 54 °F 34 °F (2013)
Degree Days  
Heating Degree Days 8    
Growing Degree Days 7 (Base 50)    
Moisture  
Dew Point 38 °F    
Average Humidity 53    
Maximum Humidity 89    
Minimum Humidity 20    
Precipitation  
Precipitation 0.00 in - - ()
Sea Level Pressure  
Sea Level Pressure 30.28 in    
Wind  
Wind Speed 3 mph (SSW)    
Max Wind Speed 18 mph    
Max Gust Speed 22 mph    
Visibility 10 miles    
Events      
Averages and records for this station are not official NWS values.
T = Trace of Precipitation, MM = Missing Value Source: NWS Daily Summary

Daily Weather History Graph

Daily Weather History Graph

Search for Another Location

Airport or City:

Trip Planner

Search our weather history database for the weather conditions in past years. The results will help you decide how hot, cold, wet, or windy it might be!

Date:

Astronomy

Mar. 29, 2013 Rise Set
Actual Time 6:37 AM CDT 7:02 PM CDT
Civil Twilight 6:13 AM CDT 7:27 PM CDT
Nautical Twilight 5:44 AM CDT 7:55 PM CDT
Astronomical Twilight 5:16 AM CDT 8:24 PM CDT
Moon 9:48 PM CDT (3/29) 7:57 AM CDT (3/29)
Length of Visible Light 13h 13m
Length of Day
12h 25m
Waning Gibbous, 93% of the Moon is Illuminated
Mar 29
Waning Gibbous
Apr 2
Last Quarter
Apr 10
New
Apr 18
First Quarter
Apr 25
Full

Hourly Weather History & Observations

Time (CDT) Temp. Dew Point Humidity Pressure Visibility Wind Dir Wind Speed Gust Speed Precip Events Conditions
12:58 AM 46.0 °F 37.9 °F 73% 30.32 in 10.0 mi Calm Calm - N/A   Clear
1:58 AM 45.0 °F 37.9 °F 76% 30.32 in 10.0 mi Calm Calm - N/A   Clear
2:58 AM 46.0 °F 39.0 °F 76% 30.31 in 10.0 mi Calm Calm - N/A   Clear
3:58 AM 43.0 °F 37.9 °F 82% 30.30 in 10.0 mi Calm Calm - N/A   Clear
4:58 AM 43.0 °F 37.9 °F 82% 30.30 in 10.0 mi Calm Calm - N/A   Clear
5:58 AM 39.9 °F 36.0 °F 86% 30.32 in 10.0 mi Calm Calm - N/A   Clear
6:58 AM 39.0 °F 36.0 °F 89% 30.34 in 10.0 mi Calm Calm - N/A   Clear
7:58 AM 48.0 °F 42.1 °F 80% 30.34 in 10.0 mi Calm Calm - N/A   Clear
8:58 AM 59.0 °F 41.0 °F 51% 30.34 in 10.0 mi East 3.5 mph - N/A   Clear
9:58 AM 64.0 °F 37.9 °F 38% 30.35 in 10.0 mi Calm Calm - N/A   Clear
10:58 AM 68.0 °F 36.0 °F 31% 30.34 in 10.0 mi SSW 8.1 mph - N/A   Clear
11:58 AM 70.0 °F 33.1 °F 26% 30.32 in 10.0 mi SSW 5.8 mph - N/A   Clear
12:58 PM 73.0 °F 34.0 °F 24% 30.27 in 10.0 mi North - - N/A   Clear
1:58 PM 73.9 °F 33.1 °F 22% 30.24 in 10.0 mi SSW 10.4 mph 17.3 mph N/A   Clear
2:58 PM 75.0 °F 32.0 °F 21% 30.22 in 10.0 mi SW 8.1 mph 18.4 mph N/A   Clear
3:58 PM 73.0 °F 30.0 °F 20% 30.21 in 10.0 mi SSW 18.4 mph 21.9 mph N/A   Clear
4:58 PM 71.1 °F 30.9 °F 23% 30.22 in 10.0 mi SSW 17.3 mph - N/A   Clear
5:58 PM 68.0 °F 32.0 °F 26% 30.22 in 10.0 mi SSW 13.8 mph - N/A   Clear
6:58 PM 62.1 °F 35.1 °F 37% 30.24 in 10.0 mi SSW 8.1 mph - N/A   Clear
7:58 PM 59.0 °F 39.0 °F 48% 30.24 in 10.0 mi SSW 8.1 mph - N/A   Clear
8:58 PM 59.0 °F 42.1 °F 53% 30.25 in 10.0 mi SW 6.9 mph - N/A   Clear
9:58 PM 57.9 °F 46.0 °F 65% 30.26 in 10.0 mi SW 4.6 mph - N/A   Mostly Cloudy
10:58 PM 55.0 °F 46.9 °F 74% 30.26 in 10.0 mi SSW 3.5 mph - N/A   Clear
11:58 PM 53.1 °F 46.9 °F 80% 30.25 in 10.0 mi SW 3.5 mph - N/A   Clear